Temperature
20 19 18 18 18 17 17 17 17 17 17 17 17 17 17 17 17 17 17 17 17 17 16 16 16 16 16 16 16 16 15 15 15 15 15 15 15 15 15 15 15 15 15
19 18 18 18 17 17 17 17 17 17 17 17 17 17 17 17 17 17 17 17 17 16 16 16 16 16 16 16 16 16 16 15 15 15 15 15 15 15 15 15 15 15 15
19 18 18 17 17 17 17 17 17 17 17 17 17 17 17 17 17 17 17 17 17 16 16 16 16 16 16 16 16 16 16 16 15 15 15 15 15 15 15 15 15 15 15
18 18 17 17 17 17 17 17 17 17 17 17 17 17 17 17 16 17 16 17 16 16 16 16 16 16 16 16 16 16 16 16 15 15 15 15 15 15 15 15 15 15 15
18 18 17 17 17 17 17 16 16 16 16 16 16 16 16 16 16 16 16 16 16 16 16 16 16 16 16 16 16 16 16 16 15 15 15 15 15 15 15 15 15 15 15
18 17 17 17 17 17 16 16 16 16 16 16 16 16 16 16 16 16 16 16 16 16 16 16 16 16 16 16 16 16 16 15 15 15 15 15 15 15 15 15 15 14 14
17 17 17 16 16 16 16 16 16 16 16 16 16 16 16 16 16 16 16 16 16 16 16 16 16 16 16 16 16 16 16 15 15 15 15 15 15 15 15 14 14 14 14
16 16 16 16 16 16 16 16 16 16 16 16 16 16 16 16 16 16 16 16 16 16 16 16 16 16 16 16 16 16 16 15 15 15 15 15 15 14 14 14 14 14 14
16 16 16 16 16 16 16 16 16 16 16 16 16 16 16 16 15 15 16 16 16 16 16 16 16 16 16 16 16 16 16 15 15 15 15 15 14 14 14 14 14 14 14
15 15 15 15 15 15 15 15 15 15 15 15 15 15 15 15 15 15 15 16 16 16 16 16 16 16 16 16 16 16 15 15 15 15 15 14 14 14 14 14 14 14 14
15 15 15 15 15 15 15 15 15 15 15 15 15 15 15 15 15 15 15 15 16 16 16 16 16 16 16 16 16 16 15 15 15 15 15 14 14 14 14 14 14 14 13
14 15 15 15 15 15 15 15 15 15 15 15 15 15 15 15 15 15 15 15 15 15 15 15 15 16 16 16 16 15 15 15 15 15 14 14 14 14 14 14 14 14 13
14 14 14 14 15 15 15 15 15 15 15 15 15 15 15 15 15 15 15 15 15 15 15 15 15 16 16 16 16 15 15 15 15 15 14 14 14 14 14 14 14 14 13
13 14 14 14 14 14 14 14 14 14 14 14 14 14 14 14 14 14 15 15 15 15 15 15 15 16 15 15 15 15 15 15 15 14 14 14 14 14 14 14 13 13 13
13 13 14 14 14 14 14 14 14 14 14 14 14 14 14 14 14 14 14 15 15 15 15 15 15 15 15 15 15 15 15 15 14 14 14 14 14 14 14 13 13 13 13
13 13 13 13 14 14 14 14 14 14 14 14 14 14 14 14 14 14 14 14 15 15 15 15 15 15 15 15 15 15 15 14 14 14 14 14 14 13 13 13 13 13 13
12 13 13 13 13 13 13 14 14 14 14 14 14 14 14 14 14 14 14 14 14 15 15 15 15 15 15 15 15 15 14 14 14 14 14 14 14 13 13 13 13 13 13
12 12 12 12 13 13 13 13 13 13 13 14 14 14 14 14 14 14 14 14 14 14 14 14 14 14 14 14 14 14 14 14 14 14 14 14 13 13 13 13 13 13 13
11 12 12 12 12 12 13 13 13 13 13 13 13 13 14 13 13 13 13 13 14 14 14 14 14 14 14 14 14 14 14 14 14 14 14 13 13 13 13 13 13 13 13
11 11 11 12 12 12 12 12 12 12 13 13 13 13 13 13 13 13 13 13 13 13 13 14 14 14 14 14 13 13 13 13 13 13 13 13 13 13 13 13 13 13 13
10 11 11 11 12 12 12 12 12 12 12 12 13 13 13 13 13 13 13 13 13 13 13 13 13 13 13 13 13 13 13 13 13 13 13 13 13 13 13 13 12 12 12
10 10 11 11 11 11 11 12 12 12 12 12 12 12 12 12 12 12 12 12 12 12 12 13 13 13 13 13 12 12 12 12 12 13 13 13 13 13 13 13 12 12 12
9 10 10 10 11 11 11 11 11 11 11 11 12 12 12 12 12 12 12 12 12 12 12 12 13 13 12 12 12 12 12 12 12 13 13 13 13 13 13 12 12 12 12
9 9 10 10 10 11 11 11 11 11 11 11 11 11 12 12 12 12 12 12 12 12 12 12 12 12 12 12 12 12 13 13 13 12 12 12 12 12 12 12 12 12 12
8 9 9 9 10 10 10 10 10 10 11 11 11 11 11 11 11 11 11 11 11 12 12 12 12 12 12 12 12 12 12 12 12 13 12 12 12 12 12 12 12 12 11
8 8 9 9 9 9 9 10 10 10 10 10 10 11 11 11 11 11 11 11 11 11 11 11 11 12 12 12 12 12 12 12 12 12 13 12 12 12 12 11 11 11 11
Wind_Speed
3 8 18 19 18 17 17 17 17 16 17 18 18 19 19 19 19 18 18 18 17 17 18 18 19 19 19 18 18 17 16 16 17 17 16 16 16 16 16 15 15 14 16
5 11 17 19 18 18 17 17 17 16 16 17 18 18 18 18 18 18 18 18 18 18 18 18 19 19 19 19 18 17 17 16 17 16 15 15 15 15 15 14 14 14 15
5 11 16 18 18 17 17 16 16 16 16 17 17 17 18 18 18 18 18 18 18 18 18 18 19 19 19 18 17 16 16 16 15 15 13 12 13 14 14 14 14 14 14
6 11 13 17 18 18 17 16 16 16 16 16 17 17 17 18 18 17 17 18 18 18 18 18 19 19 18 17 16 16 15 15 14 12 11 10 11 13 13 13 13 13 13
6 10 12 17 18 18 17 17 17 16 16 16 17 17 17 17 17 17 17 18 18 18 18 19 19 18 17 17 16 15 14 13 12 12 11 10 10 12 12 12 12 12 12
5 8 11 17 17 17 17 17 17 17 16 16 16 17 17 17 18 18 17 17 17 18 19 19 18 18 17 16 15 14 14 13 12 11 10 8 8 11 11 11 11 11 11
3 5 9 15 16 17 17 17 17 17 17 16 16 16 17 17 18 18 18 17 18 18 19 18 18 17 16 15 15 14 14 13 12 10 8 7 7 10 10 10 10 10 10
1 2 6 13 15 16 16 17 17 17 17 17 16 17 17 17 17 18 18 19 19 19 19 18 17 17 15 14 14 14 13 13 11 9 7 6 7 9 9 9 9 8 9
1 1 3 7 12 15 15 16 17 17 17 17 16 16 17 17 17 18 19 20 19 19 18 18 17 16 15 14 13 13 12 12 11 9 7 6 6 7 8 8 7 7 7
2 1 2 4 6 9 11 14 16 16 16 16 16 16 16 17 18 19 19 20 20 19 18 17 17 15 14 14 13 12 12 11 10 8 7 6 6 6 7 6 6 5 5
4 3 3 2 3 6 8 10 12 13 14 14 14 15 14 13 15 17 18 20 20 19 18 17 16 15 14 13 12 12 12 10 9 7 7 7 7 6 6 5 5 4 3
6 5 4 4 4 4 6 6 7 9 10 10 11 12 11 12 13 15 18 20 20 19 18 17 16 14 12 10 10 11 9 9 8 7 7 7 7 6 6 5 4 3 3
6 6 5 4 4 4 4 4 4 6 7 8 10 11 11 11 11 12 13 15 16 16 14 14 13 11 10 9 8 8 8 8 7 7 8 8 8 7 6 5 4 4 3
7 8 6 5 5 5 5 4 5 4 4 5 9 12 11 7 6 8 8 11 12 12 10 10 9 9 9 9 9 8 8 7 7 8 8 9 9 8 7 5 5 5 4
9 8 7 5 6 5 5 5 5 5 5 6 8 12 13 8 8 7 7 9 10 11 10 8 8 7 6 7 7 7 7 7 8 8 8 9 9 8 7 6 5 5 5
9 8 6 6 6 6 6 6 6 5 6 6 7 10 13 10 8 8 8 8 9 11 10 9 8 6 5 5 5 6 7 7 7 8 8 8 9 9 8 6 5 4 4
10 8 7 7 7 7 8 7 6 5 6 6 7 11 13 12 11 9 8 9 9 11 10 8 6 5 4 4 4 5 5 6 7 8 8 8 8 9 9 7 6 5 4
9 8 8 8 7 8 7 7 5 5 6 6 7 9 12 13 13 9 8 9 10 11 9 7 6 5 5 5 4 4 4 5 6 7 8 8 8 8 8 7 6 5 4
9 8 8 8 8 8 8 6 5 5 6 5 6 7 10 12 14 10 8 7 10 8 8 8 6 5 5 5 4 3 3 4 4 6 6 8 8 8 8 7 6 5 5
7 7 7 7 7 7 6 4 4 4 5 5 6 7 10 11 13 10 8 9 10 8 8 8 7 6 5 5 3 2 2 3 3 4 5 6 8 9 9 8 7 5 5
4 5 5 5 5 5 4 4 4 5 5 5 6 8 10 11 12 11 9 9 10 10 10 10 7 7 5 4 3 1 1 1 3 4 4 4 5 8 8 8 8 7 6
3 4 4 5 5 5 5 4 3 3 4 4 4 6 9 10 11 11 11 10 11 10 11 11 8 6 5 6 5 3 2 2 3 4 4 5 5 5 6 8 8 8 8
3 3 4 4 4 5 5 2 2 2 1 3 4 5 7 8 10 9 10 10 10 10 11 12 12 11 8 7 6 5 5 6 3 2 3 4 5 5 5 6 8 9 9
4 3 3 3 3 3 4 4 4 3 3 3 3 4 5 7 8 9 9 10 10 10 10 11 12 9 9 8 6 5 3 4 4 3 2 2 4 5 6 5 7 9 10
5 4 3 2 1 1 2 4 5 4 3 2 2 3 3 4 6 7 8 9 10 9 10 11 11 11 10 9 7 5 3 2 3 4 4 3 3 4 5 5 5 7 9
7 6 5 3 3 2 0 1 3 3 3 2 2 3 3 3 4 5 6 7 8 9 10 11 12 12 11 10 9 7 6 5 5 4 4 4 4 3 3 4 5 6 9
Wind_Direction
200 176 171 163 163 161 158 155 150 146 144 143 143 143 143 144 144 143 142 139 136 132 129 127 125 123 120 117 113 107 102 97 95 94 92 92 91 90 87 83 79 77 78
178 171 172 166 165 165 162 159 155 151 149 148 148 148 148 147 147 146 145 143 140 136 133 130 127 124 121 118 114 110 105 101 98 95 91 90 91 92 89 86 84 82 81
159 168 172 168 168 167 166 163 160 157 156 154 154 153 152 151 151 151 150 148 145 141 137 133 130 126 124 120 118 115 111 108 105 99 94 92 95 94 91 87 84 82 81
166 167 172 170 171 170 169 168 166 164 162 161 160 159 158 156 155 154 153 151 148 145 141 136 133 130 127 125 123 121 118 114 110 103 96 92 96 97 94 91 87 84 81
169 169 174 173 173 173 173 173 172 171 170 169 166 165 164 162 160 158 156 153 149 146 143 139 136 134 132 130 128 126 124 120 113 107 102 98 98 100 96 93 90 87 84
172 173 179 178 178 178 177 177 177 176 177 176 174 171 170 169 166 163 159 155 150 147 145 142 141 140 138 134 132 131 130 125 119 114 110 108 106 107 103 99 95 91 88
179 179 186 185 184 183 183 182 182 182 183 181 180 178 177 176 172 167 162 157 154 152 149 148 148 147 143 140 138 137 135 133 129 123 118 117 117 114 110 105 99 95 92
197 194 194 194 191 189 190 190 187 187 188 187 185 184 183 181 176 171 167 161 159 158 155 154 154 152 148 143 142 142 141 139 138 134 133 133 130 122 116 111 105 100 97
328 216 207 200 199 198 198 195 192 193 194 191 191 191 188 183 178 174 170 166 164 163 161 160 159 157 152 147 145 147 149 147 146 148 149 151 144 133 126 121 115 109 103
340 290 237 213 204 202 202 201 198 198 198 194 195 195 190 186 179 175 171 171 169 167 166 165 165 163 157 151 149 151 151 151 153 159 164 170 164 149 139 135 129 122 117
318 304 266 230 213 206 203 206 201 201 200 198 197 193 188 185 178 175 173 174 172 171 170 170 169 167 160 154 153 153 152 156 162 171 180 184 179 169 158 153 148 143 139
302 296 280 245 222 208 206 202 199 199 199 198 193 188 183 177 175 173 175 175 174 174 173 174 173 168 159 155 154 153 157 164 171 182 192 193 190 185 176 170 171 172 168
279 280 278 257 228 204 194 190 195 196 194 192 189 184 177 170 168 168 170 174 175 174 174 176 174 168 162 160 158 159 165 172 185 194 203 204 202 200 195 189 191 195 197
274 269 266 256 235 216 198 192 189 190 193 195 191 183 176 171 168 169 172 172 173 175 173 173 171 168 168 172 170 168 173 182 194 202 211 211 208 208 204 200 203 206 206
262 261 257 250 233 221 208 204 197 194 195 199 196 189 182 178 178 175 175 175 175 175 176 175 174 173 173 177 180 179 184 193 202 208 216 215 212 210 209 210 211 214 210
251 251 249 245 234 222 214 212 206 199 199 194 193 196 191 185 180 179 180 179 180 180 181 182 180 177 179 179 188 191 194 198 205 210 215 214 211 210 212 213 212 213 213
250 244 237 238 231 226 219 216 211 200 201 201 199 198 196 193 187 184 185 185 185 181 177 176 176 171 180 189 200 198 198 202 204 207 207 208 209 211 212 212 214 215 218
250 243 236 237 226 223 223 217 210 204 203 204 203 199 200 197 191 186 190 190 183 179 179 179 181 182 191 194 200 205 199 200 205 206 203 203 202 202 205 206 206 208 209
247 242 236 230 224 221 222 220 214 209 210 206 205 201 199 199 194 190 191 189 181 181 185 188 186 182 189 194 199 202 204 205 202 199 198 201 200 197 195 196 197 198 198
251 242 235 229 222 217 214 210 208 213 216 210 207 205 200 199 196 193 191 188 183 185 189 190 186 182 181 175 176 188 215 218 201 200 199 195 196 196 193 187 186 186 188
259 246 235 231 227 209 203 201 203 212 214 212 208 207 204 201 198 195 196 189 187 192 194 190 184 183 183 153 139 175 297 236 212 209 197 189 189 191 188 186 185 181 179
266 253 243 237 229 215 211 201 197 192 206 212 212 209 205 202 200 200 196 194 193 194 192 189 182 182 183 174 161 151 209 260 239 213 198 199 194 178 181 189 185 181 176
298 271 258 243 230 218 207 191 186 172 175 202 209 214 209 203 200 200 199 197 194 196 199 196 192 189 189 193 186 172 177 210 215 220 208 201 189 183 183 178 184 184 181
316 305 277 251 236 221 197 191 188 193 206 216 209 223 216 207 202 198 201 202 201 202 202 200 199 198 188 195 204 213 201 165 175 200 222 203 193 192 191 186 181 185 184
347 341 337 318 297 242 202 201 202 210 220 213 197 210 220 221 213 204 200 203 206 207 207 202 201 201 200 200 195 189 193 195 192 183 201 200 204 210 200 189 180 182 185
4 6 9 12 6 12 40 204 199 209 212 202 210 218 224 225 222 217 209 205 209 211 209 206 204 203 205 207 205 199 191 188 193 188 198 197 204 204 196 189 186 187 187
Height
1494 1495 1497 1500 1503 1505 1508 1510 1513 1515 1517 1519 1521 1523 1524 1526 1527 1529 1530 1531 1533 1534 1535 1536 1537 1538 1539 1540 1541 1541 1542 1543 1544 1545 1545 1546 1546 1546 1547 1547 1547 1547 1547
1494 1495 1497 1500 1503 1505 1508 1510 1513 1515 1517 1519 1521 1523 1525 1526 1528 1529 1530 1532 1533 1534 1535 1537 1538 1539 1540 1541 1542 1543 1544 1545 1545 1546 1547 1547 1548 1548 1548 1548 1548 1548 1548
1494 1496 1497 1500 1503 1505 1508 1510 1513 1515 1517 1519 1521 1523 1524 1526 1528 1529 1531 1532 1533 1535 1536 1537 1538 1540 1541 1542 1543 1544 1545 1546 1547 1548 1548 1549 1549 1550 1550 1550 1550 1550 1550
1495 1496 1498 1500 1503 1505 1508 1510 1512 1515 1517 1518 1521 1522 1524 1526 1528 1529 1531 1532 1534 1535 1536 1538 1539 1540 1542 1543 1544 1545 1546 1547 1548 1549 1550 1550 1550 1551 1551 1551 1551 1551 1551
1496 1497 1498 1501 1503 1505 1507 1510 1512 1514 1516 1518 1520 1522 1524 1526 1528 1529 1531 1532 1534 1535 1537 1538 1540 1541 1542 1544 1545 1546 1547 1548 1549 1550 1551 1551 1552 1552 1552 1552 1552 1552 1552
1497 1497 1499 1501 1503 1505 1507 1509 1511 1513 1515 1517 1519 1521 1524 1525 1527 1529 1531 1532 1534 1535 1537 1538 1540 1542 1543 1544 1546 1547 1548 1549 1550 1551 1552 1552 1553 1553 1553 1553 1553 1553 1553
1497 1498 1499 1501 1503 1505 1507 1509 1510 1512 1514 1516 1518 1521 1523 1525 1527 1528 1530 1532 1534 1535 1537 1539 1540 1542 1544 1545 1547 1548 1549 1550 1551 1552 1552 1553 1553 1554 1554 1554 1554 1554 1553
1496 1498 1499 1500 1502 1504 1506 1508 1509 1511 1513 1515 1517 1519 1521 1524 1526 1528 1530 1532 1533 1535 1537 1539 1541 1542 1544 1546 1547 1548 1549 1551 1552 1552 1553 1554 1554 1554 1554 1554 1554 1554 1554
1496 1497 1498 1500 1501 1503 1505 1506 1508 1510 1512 1514 1515 1518 1520 1522 1524 1527 1529 1531 1533 1535 1537 1539 1541 1542 1544 1546 1547 1549 1550 1551 1552 1553 1553 1554 1554 1554 1555 1555 1555 1555 1554
1495 1496 1497 1498 1500 1501 1503 1505 1506 1508 1510 1512 1514 1516 1518 1521 1523 1525 1528 1530 1532 1534 1536 1538 1540 1542 1544 1546 1547 1549 1550 1551 1552 1553 1553 1554 1554 1555 1555 1555 1555 1555 1555
1494 1494 1495 1497 1498 1499 1501 1503 1504 1506 1508 1510 1512 1514 1516 1519 1521 1523 1526 1528 1531 1533 1535 1538 1540 1542 1543 1545 1547 1548 1550 1551 1552 1553 1553 1554 1554 1554 1555 1555 1555 1555 1554
1491 1492 1493 1494 1496 1497 1498 1500 1501 1503 1505 1507 1509 1511 1514 1516 1519 1521 1524 1527 1529 1532 1534 1537 1539 1541 1543 1544 1546 1548 1549 1550 1551 1552 1553 1553 1554 1554 1554 1554 1554 1554 1554
1489 1489 1490 1491 1493 1494 1495 1497 1498 1500 1502 1504 1506 1508 1511 1514 1516 1519 1521 1524 1527 1530 1532 1535 1537 1539 1541 1543 1545 1547 1548 1549 1550 1551 1552 1552 1553 1553 1554 1554 1554 1554 1554
1485 1486 1487 1488 1489 1490 1492 1493 1495 1497 1499 1501 1503 1505 1507 1510 1513 1515 1518 1521 1524 1527 1530 1532 1535 1537 1540 1542 1544 1545 1547 1548 1549 1550 1551 1551 1552 1552 1553 1553 1553 1553 1553
1480 1481 1483 1484 1485 1487 1488 1490 1491 1493 1495 1497 1499 1502 1504 1506 1509 1512 1515 1518 1521 1524 1527 1530 1533 1535 1538 1540 1542 1543 1545 1546 1548 1549 1549 1550 1551 1551 1551 1552 1552 1551 1551
1476 1477 1478 1479 1481 1482 1484 1485 1487 1489 1491 1493 1495 1497 1500 1503 1505 1508 1511 1515 1518 1521 1524 1527 1530 1533 1535 1538 1540 1541 1543 1544 1546 1547 1548 1548 1549 1549 1550 1550 1550 1550 1550
1470 1471 1473 1474 1475 1477 1479 1481 1482 1484 1487 1489 1491 1493 1496 1498 1501 1505 1507 1511 1514 1517 1521 1524 1527 1530 1532 1535 1537 1539 1541 1542 1543 1544 1545 1546 1547 1547 1548 1548 1548 1548 1548
1465 1466 1467 1469 1470 1472 1474 1476 1478 1480 1482 1484 1486 1489 1491 1494 1497 1500 1503 1506 1510 1513 1517 1520 1523 1526 1529 1531 1534 1536 1538 1539 1541 1542 1543 1544 1545 1545 1546 1546 1546 1546 1546
1459 1460 1462 1464 1465 1467 1469 1471 1473 1475 1477 1479 1482 1484 1486 1489 1492 1495 1499 1502 1506 1509 1512 1516 1519 1522 1525 1528 1531 1533 1535 1536 1538 1539 1540 1541 1542 1542 1543 1543 1544 1544 1544
1454 1455 1457 1458 1460 1462 1464 1466 1468 1469 1471 1474 1476 1479 1481 1484 1487 1491 1494 1497 1501 1504 1507 1511 1514 1517 1521 1524 1527 1529 1531 1533 1534 1535 1536 1537 1538 1539 1540 1540 1541 1541 1541
1449 1450 1451 1453 1455 1457 1459 1460 1462 1464 1467 1469 1471 1474 1477 1479 1482 1486 1489 1492 1495 1498 1502 1505 1509 1513 1516 1520 1523 1525 1527 1528 1530 1531 1532 1533 1534 1535 1536 1537 1538 1538 1538
1444 1446 1447 1449 1450 1453 1455 1456 1458 1460 1462 1464 1466 1469 1471 1474 1477 1480 1483 1486 1489 1493 1496 1499 1503 1507 1510 1514 1517 1520 1522 1524 1524 1525 1527 1528 1529 1531 1532 1533 1534 1534 1535
1441 1442 1443 1444 1446 1448 1450 1452 1454 1456 1457 1460 1461 1464 1466 1469 1472 1475 1478 1481 1484 1487 1491 1494 1498 1501 1504 1508 1512 1515 1516 1516 1518 1519 1520 1522 1524 1525 1527 1528 1529 1530 1531
1438 1439 1439 1440 1442 1444 1446 1448 1449 1451 1452 1454 1457 1459 1462 1464 1466 1469 1472 1475 1478 1481 1485 1488 1491 1494 1498 1501 1505 1508 1510 1511 1512 1513 1514 1516 1518 1519 1521 1523 1524 1525 1527
1437 1436 1437 1438 1439 1440 1442 1444 1446 1447 1449 1451 1453 1455 1457 1459 1461 1464 1467 1469 1472 1475 1478 1481 1484 1488 1491 1494 1497 1500 1503 1505 1506 1507 1507 1509 1511 1513 1515 1517 1519 1520 1521
1436 1435 1435 1436 1437 1438 1439 1441 1442 1444 1445 1447 1448 1451 1452 1454 1456 1458 1461 1463 1466 1469 1471 1474 1478 1481 1484 1487 1490 1492 1495 1497 1499 1500 1501 1502 1505 1507 1509 1510 1512 1514 1516